Location: The Saddle
(36.8333°N, 80.3417°W)
Time: 06:46:15
(UTC-04:00)

Vanguard 2 Rocket - Pass Details

Date: 05 February 2022
Orbit: 553 x 3323 km, 32.9° (Epoch: 23 May)

Event Time Altitude Azimuth Distance (km) Brightness Sun altitude
Exits shadow 02:43:33 49° 125° (SE) 3,481 9.6 -54.8°
Drops below altitude 10° 02:56:48 10° 111° (ESE) 6,240 11.4 -52.4°
Sets 03:01:51 0° 110° (ESE) 7,309 11.9 -51.4°
